Time,TemperatureF,DewpointF,PressureIn,WindDirection,WindDirectionDegrees,WindSpeedMPH,WindSpeedGustMPH,Humidity,HourlyPrecipIn,Conditions,Clouds,dailyrainin,SoftwareType,DateUTC
2013-08-30 00:14:00,75.0,72.0,29.93,NW,321,0.0,-999.0,91,-99.99,,,-99.99,,2013-08-30 04:14:00,
2013-08-30 00:25:00,76.0,73.0,29.93,NW,321,1.0,-999.0,91,-99.99,,,-99.99,,2013-08-30 04:25:00,
2013-08-30 00:54:00,76.0,73.0,29.94,NW,321,1.0,-999.0,91,-99.99,,,-99.99,,2013-08-30 04:54:00,
2013-08-30 01:12:00,76.0,73.0,29.94,NW,321,1.0,-999.0,91,-99.99,,,-99.99,,2013-08-30 05:12:00,
2013-08-30 01:23:00,76.0,73.0,29.93,NW,321,2.0,-999.0,91,-99.99,,,-99.99,,2013-08-30 05:23:00,
2013-08-30 01:42:00,76.0,73.0,29.93,NW,321,0.0,-999.0,91,-99.99,,,-99.99,,2013-08-30 05:42:00,
2013-08-30 01:52:00,76.0,73.0,29.93,NW,321,0.0,-999.0,91,-99.99,,,-99.99,,2013-08-30 05:52:00,
2013-08-30 02:12:00,76.0,73.0,29.93,NW,321,0.0,-999.0,91,-99.99,,,-99.99,,2013-08-30 06:12:00,
2013-08-30 02:22:00,76.0,73.0,29.92,NW,321,1.0,-999.0,91,-99.99,,,-99.99,,2013-08-30 06:22:00,
2013-08-30 02:42:00,76.0,73.0,29.92,NNE,12,1.0,-999.0,91,-99.99,,,-99.99,,2013-08-30 06:42:00,
2013-08-30 02:53:00,76.0,73.0,29.92,ENE,57,1.0,-999.0,91,-99.99,,,-99.99,,2013-08-30 06:53:00,
2013-08-30 03:12:00,76.0,73.0,29.92,ENE,62,1.0,-999.0,91,-99.99,,,-99.99,,2013-08-30 07:12:00,
2013-08-30 03:22:00,76.0,73.0,29.92,ENE,62,1.0,-999.0,91,-99.99,,,-99.99,,2013-08-30 07:22:00,
2013-08-30 03:44:00,76.0,73.0,29.92,ENE,58,2.0,-999.0,91,-99.99,,,-99.99,,2013-08-30 07:44:00,
2013-08-30 03:53:00,76.0,74.0,29.92,ENE,72,2.0,-999.0,92,-99.99,,,-99.99,,2013-08-30 07:53:00,
2013-08-30 04:11:00,77.0,74.0,29.92,East,80,5.0,-999.0,92,-99.99,,,-99.99,,2013-08-30 08:11:00,
2013-08-30 04:22:00,77.0,74.0,29.92,NE,55,5.0,-999.0,91,-99.99,,,-99.99,,2013-08-30 08:22:00,
2013-08-30 04:43:00,77.0,74.0,29.92,East,96,5.0,-999.0,91,-99.99,,,-99.99,,2013-08-30 08:43:00,
2013-08-30 04:52:00,77.0,74.0,29.93,SE,125,6.0,-999.0,91,-99.99,,,-99.99,,2013-08-30 08:52:00,
2013-08-30 05:12:00,77.0,74.0,29.93,ENE,66,6.0,-999.0,90,-99.99,,,-99.99,,2013-08-30 09:12:00,
2013-08-30 05:22:00,77.0,74.0,29.93,East,94,4.0,-999.0,90,-99.99,,,-99.99,,2013-08-30 09:22:00,
2013-08-30 05:44:00,77.0,74.0,29.93,ENE,59,6.0,-999.0,90,-99.99,,,-99.99,,2013-08-30 09:44:00,
2013-08-30 05:53:00,77.0,74.0,29.93,ENE,73,3.0,-999.0,90,-99.99,,,-99.99,,2013-08-30 09:53:00,
2013-08-30 06:13:00,77.0,74.0,29.93,ENE,78,5.0,-999.0,90,-99.99,,,-99.99,,2013-08-30 10:13:00,
2013-08-30 06:23:00,77.0,74.0,29.93,ENE,78,4.0,-999.0,90,-99.99,,,-99.99,,2013-08-30 10:23:00,
2013-08-30 06:43:00,77.0,74.0,29.94,East,80,3.0,-999.0,89,-99.99,,,-99.99,,2013-08-30 10:43:00,
2013-08-30 06:53:00,77.0,74.0,29.95,ESE,109,3.0,-999.0,89,-99.99,,,-99.99,,2013-08-30 10:53:00,
2013-08-30 07:12:00,77.0,74.0,29.96,ENE,72,2.0,-999.0,89,-99.99,,,-99.99,,2013-08-30 11:12:00,
2013-08-30 07:22:00,77.0,74.0,29.96,East,98,4.0,-999.0,89,-99.99,,,-99.99,,2013-08-30 11:22:00,
2013-08-30 07:42:00,77.0,74.0,29.97,East,80,3.0,-999.0,89,-99.99,,,-99.99,,2013-08-30 11:42:00,
2013-08-30 07:52:00,77.0,74.0,29.98,NNE,27,4.0,-999.0,89,-99.99,,,-99.99,,2013-08-30 11:52:00,
2013-08-30 08:12:00,77.0,74.0,29.98,East,88,3.0,-999.0,89,-99.99,,,-99.99,,2013-08-30 12:12:00,
2013-08-30 08:21:00,77.0,74.0,29.98,East,81,4.0,-999.0,89,-99.99,,,-99.99,,2013-08-30 12:21:00,
2013-08-30 08:42:00,77.0,74.0,29.98,East,90,3.0,-999.0,89,-99.99,,,-99.99,,2013-08-30 12:42:00,
2013-08-30 08:52:00,77.0,73.0,29.99,East,101,3.0,-999.0,88,-99.99,,,-99.99,,2013-08-30 12:52:00,
2013-08-30 09:11:00,78.0,74.0,29.99,ESE,105,3.0,-999.0,88,-99.99,,,-99.99,,2013-08-30 13:11:00,
2013-08-30 09:22:00,79.0,75.0,30.00,ENE,57,5.0,-999.0,87,-99.99,,,-99.99,,2013-08-30 13:22:00,
2013-08-30 09:52:00,79.0,75.0,30.01,NE,49,4.0,-999.0,87,-99.99,,,-99.99,,2013-08-30 13:52:00,
2013-08-30 10:11:00,78.0,74.0,30.01,NNE,14,5.0,-999.0,88,-99.99,,,-99.99,,2013-08-30 14:11:00,
2013-08-30 10:22:00,79.0,75.0,30.01,East,96,2.0,-999.0,88,-99.99,,,-99.99,,2013-08-30 14:22:00,
2013-08-30 10:42:00,79.0,74.0,30.00,ESE,102,4.0,-999.0,86,-99.99,,,-99.99,,2013-08-30 14:42:00,
2013-08-30 10:52:00,80.0,75.0,30.01,ENE,66,5.0,-999.0,85,-99.99,,,-99.99,,2013-08-30 14:52:00,
2013-08-30 11:11:00,80.0,75.0,30.00,ESE,121,5.0,-999.0,84,-99.99,,,-99.99,,2013-08-30 15:11:00,
2013-08-30 11:22:00,81.0,75.0,30.00,ENE,63,5.0,-999.0,83,-99.99,,,-99.99,,2013-08-30 15:22:00,
2013-08-30 11:43:00,81.0,75.0,30.00,NNE,30,5.0,-999.0,83,-99.99,,,-99.99,,2013-08-30 15:43:00,
2013-08-30 11:54:00,81.0,75.0,30.00,NNE,28,4.0,-999.0,82,-99.99,,,-99.99,,2013-08-30 15:54:00,
2013-08-30 12:13:00,82.0,76.0,30.00,SSE,156,3.0,-999.0,82,-99.99,,,-99.99,,2013-08-30 16:13:00,
2013-08-30 12:25:00,84.0,76.0,30.00,ESE,119,5.0,-999.0,78,-99.99,,,-99.99,,2013-08-30 16:25:00,
2013-08-30 12:43:00,84.0,76.0,30.00,ESE,121,5.0,-999.0,76,-99.99,,,-99.99,,2013-08-30 16:43:00,
2013-08-30 12:53:00,84.0,77.0,29.99,East,85,6.0,-999.0,79,-99.99,,,-99.99,,2013-08-30 16:53:00,
2013-08-30 13:13:00,84.0,76.0,29.99,East,88,6.0,-999.0,78,-99.99,,,-99.99,,2013-08-30 17:13:00,
2013-08-30 13:23:00,84.0,77.0,29.99,NE,40,5.0,-999.0,79,-99.99,,,-99.99,,2013-08-30 17:23:00,
2013-08-30 13:42:00,84.0,76.0,29.98,SE,132,5.0,-999.0,78,-99.99,,,-99.99,,2013-08-30 17:42:00,
2013-08-30 13:53:00,84.0,76.0,29.98,ESE,104,6.0,-999.0,77,-99.99,,,-99.99,,2013-08-30 17:53:00,
2013-08-30 14:12:00,84.0,77.0,29.98,SE,139,7.0,-999.0,79,-99.99,,,-99.99,,2013-08-30 18:12:00,
2013-08-30 14:22:00,83.0,76.0,29.98,ENE,78,7.0,-999.0,80,-99.99,,,-99.99,,2013-08-30 18:22:00,
2013-08-30 14:42:00,83.0,76.0,29.98,SE,128,8.0,-999.0,79,-99.99,,,-99.99,,2013-08-30 18:42:00,
2013-08-30 14:52:00,83.0,76.0,29.98,SE,138,8.0,-999.0,80,-99.99,,,-99.99,,2013-08-30 18:52:00,
2013-08-30 15:12:00,82.0,75.0,29.98,ESE,102,9.0,-999.0,80,-99.99,,,-99.99,,2013-08-30 19:12:00,
2013-08-30 15:22:00,82.0,75.0,29.97,East,99,10.0,-999.0,79,-99.99,,,-99.99,,2013-08-30 19:22:00,
2013-08-30 15:53:00,81.0,75.0,29.96,East,96,8.0,-999.0,81,-99.99,,,-99.99,,2013-08-30 19:53:00,
2013-08-30 16:12:00,82.0,76.0,29.96,East,90,8.0,-999.0,81,-99.99,,,-99.99,,2013-08-30 20:12:00,
2013-08-30 16:22:00,81.0,75.0,29.96,ENE,69,8.0,-999.0,81,-99.99,,,-99.99,,2013-08-30 20:22:00,
2013-08-30 16:52:00,81.0,75.0,29.96,East,83,8.0,-999.0,82,-99.99,,,-99.99,,2013-08-30 20:52:00,
2013-08-30 17:12:00,81.0,75.0,29.95,East,91,8.0,-999.0,81,-99.99,,,-99.99,,2013-08-30 21:12:00,
2013-08-30 17:22:00,81.0,75.0,29.95,ENE,61,8.0,-999.0,81,-99.99,,,-99.99,,2013-08-30 21:22:00,
2013-08-30 17:54:00,81.0,75.0,29.95,SE,124,7.0,-999.0,82,-99.99,,,-99.99,,2013-08-30 21:54:00,
2013-08-30 18:13:00,80.0,74.0,29.95,NE,56,8.0,-999.0,83,-99.99,,,-99.99,,2013-08-30 22:13:00,
2013-08-30 18:24:00,81.0,75.0,29.96,ESE,115,7.0,-999.0,83,-99.99,,,-99.99,,2013-08-30 22:24:00,
2013-08-30 18:54:00,80.0,75.0,29.96,NE,49,8.0,-999.0,84,-99.99,,,-99.99,,2013-08-30 22:54:00,
2013-08-30 19:12:00,80.0,75.0,29.97,ESE,122,6.0,-999.0,85,-99.99,,,-99.99,,2013-08-30 23:12:00,
2013-08-30 19:22:00,80.0,75.0,29.97,East,99,4.0,-999.0,85,-99.99,,,-99.99,,2013-08-30 23:22:00,
2013-08-30 19:53:00,79.0,75.0,29.97,ENE,65,5.0,-999.0,87,-99.99,,,-99.99,,2013-08-30 23:53:00,
2013-08-30 20:11:00,78.0,74.0,29.97,East,86,5.0,-999.0,88,-99.99,,,-99.99,,2013-08-31 00:11:00,
2013-08-30 20:22:00,78.0,74.0,29.97,ENE,61,3.0,-999.0,88,-99.99,,,-99.99,,2013-08-31 00:22:00,
2013-08-30 20:42:00,78.0,74.0,29.97,ENE,70,1.0,-999.0,89,-99.99,,,-99.99,,2013-08-31 00:42:00,
2013-08-30 20:52:00,78.0,74.0,29.97,ENE,59,1.0,-999.0,89,-99.99,,,-99.99,,2013-08-31 00:52:00,
2013-08-30 21:11:00,78.0,74.0,29.96,ENE,76,2.0,-999.0,89,-99.99,,,-99.99,,2013-08-31 01:11:00,
2013-08-30 21:22:00,77.0,74.0,29.97,NE,50,2.0,-999.0,90,-99.99,,,-99.99,,2013-08-31 01:22:00,
2013-08-30 21:42:00,77.0,74.0,29.97,East,85,2.0,-999.0,90,-99.99,,,-99.99,,2013-08-31 01:42:00,
2013-08-30 21:52:00,77.0,74.0,29.97,NE,46,2.0,-999.0,90,-99.99,,,-99.99,,2013-08-31 01:52:00,
2013-08-30 22:12:00,77.0,74.0,29.97,ENE,75,0.0,-999.0,90,-99.99,,,-99.99,,2013-08-31 02:12:00,
2013-08-30 22:22:00,77.0,74.0,29.96,ENE,75,0.0,-999.0,90,-99.99,,,-99.99,,2013-08-31 02:22:00,
2013-08-30 22:42:00,77.0,74.0,29.97,ENE,75,0.0,-999.0,90,-99.99,,,-99.99,,2013-08-31 02:42:00,
2013-08-30 22:52:00,77.0,74.0,29.96,ENE,75,0.0,-999.0,91,-99.99,,,-99.99,,2013-08-31 02:52:00,
2013-08-30 23:12:00,77.0,74.0,29.96,ENE,75,0.0,-999.0,91,-99.99,,,-99.99,,2013-08-31 03:12:00,
2013-08-30 23:22:00,77.0,74.0,29.96,ENE,75,0.0,-999.0,91,-99.99,,,-99.99,,2013-08-31 03:22:00,
2013-08-30 23:44:00,76.0,73.0,29.95,ENE,75,0.0,-999.0,91,-99.99,,,-99.99,,2013-08-31 03:44:00,
2013-08-30 23:54:00,76.0,73.0,29.95,ENE,75,0.0,-999.0,91,-99.99,,,-99.99,,2013-08-31 03:54:00,